[[{"header":{"parameterUnit":"m.s-1","parameterCategory":1,"la1":30.2991,"la2":30.254,"lo1":-89.0895,"lo2":-89.0444,"dy":0.0017,"dx":0.0017,"nx":28,"ny":28,"refTime":"2023-10-14T21:00:00:Z","depth":0,"parameterNumber":2,"parameterNumberName":"U-component_of_WINDS"},"data":[0,0,0,0,0,0,0,0,0,0,0,0,0,0,0,0,0,0,0,0,0,0,0,0,0,0,0,0,0,0,0,0,0,0,0,0,0,0,0,0,0,0,0,0,0,0,0,0,0,0,0,0,0,0,0,0,0,0,2.3539,2.3539,0,2.3528,2.3528,2.3528,2.3499,2.3498,2.3497,2.3497,2.3484,2.3485,2.3485,0,0,0,0,0,0,0,0,0,0,0,0,0,2.3536,2.3536,2.3539,2.3539,2.3539,2.3528,2.3528,2.3527,2.3499,2.3498,2.3497,2.3497,2.3484,2.3485,2.3485,0,0,0,0,0,0,0,0,0,0,0,0,0,2.3532,2.3536,2.3539,2.3523,2.3522,2.3528,2.3528,2.3527,2.3499,2.3498,2.3497,2.3496,2.3484,2.3485,2.3485,2.3506,0,0,2.3486,2.3486,0,0,0,0,0,0,0,0,2.3532,2.3532,2.3526,2.3524,2.3522,2.3514,2.3522,2.352,2.3499,2.3507,2.3497,2.3496,2.3495,2.3494,2.3494,2.3505,2.3504,2.3486,2.3486,2.3487,2.3487,0,0,0,0,0,0,0,2.3533,2.3533,2.3534,2.3525,2.3524,2.3517,2.3515,2.3521,2.3506,2.3507,2.3505,2.3504,2.3494,2.3494,2.3494,2.3504,2.3486,2.3486,2.3487,2.3487,2.3533,2.3534,0,0,0,0,0,0,2.3535,2.3533,2.3535,2.3534,2.3525,2.3517,2.3516,2.3517,2.3506,2.3504,2.3504,2.3502,2.3494,2.3493,2.3493,2.3517,2.3487,2.3487,2.3487,2.3532,2.3533,2.3534,0,0,0,0,0,0,2.3535,2.3536,2.3535,2.3533,2.3532,2.3518,2.3521,2.3518,2.3518,2.3505,2.3502,2.3507,2.3493,2.3493,2.3503,2.3516,2.3487,2.3487,2.3531,2.3532,2.3534,2.3565,0,0,0,0,0,0,2.3535,2.3536,2.3543,2.3533,2.3533,2.3545,2.3521,2.3518,2.3518,2.3516,2.3506,2.3504,2.3492,2.3503,2.3503,2.3516,2.3488,2.353,2.3531,2.3533,2.3563,2.3568,2.3572,0,0,0,0,0,2.3535,2.3552,2.3544,2.3544,2.3542,2.3546,2.3546,2.3532,2.352,2.3527,2.3519,2.3504,2.3515,2.3504,2.3505,2.3518,2.3529,2.3531,2.3533,2.3561,2.3567,2.3572,0,0,0,0,0,0,2.3563,2.355,2.3541,2.3555,2.3552,2.3541,2.355,2.3538,2.3538,2.3536,2.3518,2.3517,2.353,2.3525,2.3513,2.3538,2.3519,2.3522,2.3541,2.3546,2.355,2.3551,2.3488,0,0,0,0,0,2.3571,2.3576,2.3564,2.3578,2.3577,2.3564,2.3566,2.3556,2.3551,2.355,2.3542,2.3539,2.3541,2.3543,2.3545,2.3562,2.356,2.3572,2.3576,2.358,2.3582,2.3592,2.3597,2.3542,2.3542,2.3542,0,0,2.3587,2.3581,2.3585,2.3584,2.358,2.3586,2.3563,2.357,2.3574,2.3551,2.356,2.3555,2.355,2.3564,2.357,2.3561,2.3597,2.3583,2.3586,2.3586,2.3595,2.36,2.3605,2.3543,2.3543,2.3543,0,0,2.3619,2.3615,2.3626,2.3624,2.3619,2.361,2.3613,2.3605,2.36,2.361,2.3593,2.3598,2.3603,2.36,2.36,2.3633,2.362,2.3634,2.3657,2.3667,2.3671,2.3675,2.3687,2.3692,2.3637,2.3637,2.3637,0,2.364,2.3648,2.3634,2.3642,2.3642,2.3623,2.3634,2.3632,2.3628,2.3629,2.3618,2.3625,2.362,2.3634,2.3642,2.3642,2.3646,2.3635,2.3672,2.3675,2.3679,2.369,2.3695,2.3638,2.3638,2.3638,2.3638,0,2.3674,2.3679,2.3689,2.3687,2.3688,2.3698,2.3686,2.3689,2.3679,2.3672,2.3683,2.3677,2.3677,2.368,2.367,2.3693,2.3688,2.3675,2.3656,2.3686,2.3697,2.3701,2.3641,2.364,2.364,2.3639,0,0,2.3722,2.3712,2.3716,2.3715,2.371,2.3714,2.3723,2.3724,2.3728,2.3726,2.3734,2.3739,2.3728,2.3727,2.3717,2.3726,2.3754,2.3712,2.3712,2.372,2.378,2.3789,2.3795,2.3746,2.3746,2.3747,2.378,0,2.3752,2.3768,2.3756,2.3774,2.378,2.3762,2.3771,2.3768,2.3762,2.3766,2.376,2.3764,2.3748,2.3748,2.3756,2.3749,2.3766,2.3746,2.3753,2.3753,2.3754,2.38,2.381,2.3842,2.3784,2.3785,2.3786,0,2.379,2.3791,2.3809,2.3804,2.3805,2.3813,2.3814,2.3818,2.3816,2.3811,2.3811,2.3799,2.3809,2.3791,2.3804,2.3791,2.3793,2.379,2.3791,2.3791,2.3771,2.3801,2.3852,2.3856,2.3792,2.3791,2.3791,0,2.3824,2.383,2.3842,2.3841,2.3835,2.3841,2.3838,2.3835,2.3837,2.3838,2.3839,2.3841,2.3842,2.3844,2.3833,2.3821,2.3848,2.3829,2.3844,2.3845,2.385,2.385,2.3902,2.3852,2.3852,2.3852,2.3852,0,2.3859,2.3871,2.3857,2.3864,2.3878,2.3865,2.3879,2.3874,2.3872,2.3878,2.3863,2.387,2.3855,2.3861,2.3852,2.3865,2.3865,2.3862,2.3859,2.3863,2.3864,2.3864,2.3861,2.3853,2.3853,2.3853,2.3852,0,2.3899,2.389,2.3902,2.3895,2.3894,2.3904,2.3899,2.3905,2.3899,2.3908,2.3909,2.3899,2.3905,2.3895,2.3899,2.3893,2.3911,2.3905,2.3912,2.391,2.3926,2.3925,2.398,2.3987,2.3933,2.3933,2.3934,0,2.3922,2.3931,2.3926,2.3929,2.3928,2.3934,2.3936,2.3924,2.3927,2.3926,2.3933,2.3938,2.394,2.395,2.3944,2.3947,2.3941,2.396,2.3941,2.3945,2.3942,2.3941,2.3942,2.3964,2.3964,2.3965,2.3965,0,2.3964,2.3959,2.3963,2.3966,2.397,2.3971,2.3972,2.3976,2.3963,2.3968,2.3974,2.3976,2.3981,2.3986,2.3988,2.3985,2.3974,2.3972,2.3975,2.3979,2.3983,2.3981,2.3922,2.397,2.397,2.3969,2.3969,2.3969,2.3996,2.4004,2.4002,2.4007,2.4007,2.4008,2.4014,2.4009,2.4014,2.4017,2.401,2.4018,2.4017,2.4018,2.4017,2.4024,2.4015,2.402,2.4022,2.4023,2.4026,2.3982,2.4024,2.4024,2.4024,2.4023,2.4023,0,2.4038,2.4036,2.4041,2.4043,2.4047,2.4037,2.4037,2.4042,2.4049,2.4049,2.4052,2.406,2.4065,2.4059,2.4063,2.4069,2.4064,2.4071,2.407,2.407,2.4033,2.403,2.4075,2.4075,2.4075,2.4075,2.4075,2.4075,2.406,2.4073,2.4068,2.4081,2.4079,2.4087,2.4088,2.409,2.409,2.4099,2.4103,2.41,2.4097,2.4101,2.4106,2.4104,2.4106,2.4115,2.4111,2.4077,2.4072,2.4067,2.4064,2.4116,2.4116,2.4147,2.4148,2.4148]},{"header":{"parameterUnit":"m.s-1","parameterCategory":1,"la1":30.2991,"la2":30.254,"lo1":-89.0895,"lo2":-89.0444,"dy":0.0017,"dx":0.0017,"nx":28,"ny":28,"refTime":"2023-10-14T21:00:00:Z","depth":0,"parameterNumber":3,"parameterNumberName":"V-component_of_WINDS"},"data":[0,0,0,0,0,0,0,0,0,0,0,0,0,0,0,0,0,0,0,0,0,0,0,0,0,0,0,0,0,0,0,0,0,0,0,0,0,0,0,0,0,0,0,0,0,0,0,0,0,0,0,0,0,0,0,0,0,0,-6.0011,-6.0012,0,-6.01,-6.0101,-6.0102,-6.0091,-6.009,-6.0088,-6.0087,-6.0173,-6.0176,-6.018,0,0,0,0,0,0,0,0,0,0,0,0,0,-5.983,-5.9833,-6.0011,-6.0012,-6.0013,-6.0099,-6.0101,-6.0102,-6.0091,-6.009,-6.0088,-6.0086,-6.0172,-6.0176,-6.018,0,0,0,0,0,0,0,0,0,0,0,0,0,-5.9912,-5.9834,-6.0011,-6.0019,-6.002,-6.0099,-6.0101,-6.0102,-6.0092,-6.009,-6.0088,-6.0086,-6.017,-6.0175,-6.0181,-6.0256,0,0,-6.0197,-6.02,0,0,0,0,0,0,0,0,-5.9907,-5.9919,-6.0016,-6.0018,-6.002,-6.0082,-6.0068,-6.0154,-6.0092,-6.0064,-6.0087,-6.0085,-6.0144,-6.0151,-6.0173,-6.026,-6.0264,-6.0198,-6.0201,-6.0203,-6.0205,0,0,0,0,0,0,0,-5.9902,-5.9915,-6.0046,-6.0018,-6.002,-6.0017,-6.0026,-6.0084,-6.0115,-6.0067,-6.0066,-6.0077,-6.0145,-6.0167,-6.0174,-6.0265,-6.0198,-6.0202,-6.0206,-6.0208,-6.0421,-6.0423,0,0,0,0,0,0,-5.9895,-5.991,-6.0043,-6.0049,-5.9958,-6.0022,-6.0032,-6.0064,-6.0114,-6.012,-6.0079,-6.0076,-6.0159,-6.0168,-6.0177,-6.027,-6.0203,-6.0208,-6.0211,-6.0419,-6.0422,-6.0424,0,0,0,0,0,0,-5.9891,-5.9907,-6.0039,-5.9979,-5.9996,-6.0027,-6.0063,-6.0067,-6.009,-6.0123,-6.0128,-6.0097,-6.0158,-6.017,-6.0238,-6.0273,-6.0211,-6.0216,-6.0416,-6.042,-6.0423,-6.0456,0,0,0,0,0,0,-5.9886,-5.9905,-5.9935,-5.998,-5.9999,-6.0099,-6.0066,-6.007,-6.01,-6.0097,-6.0142,-6.0147,-6.0157,-6.023,-6.0243,-6.0279,-6.022,-6.0413,-6.0418,-6.0422,-6.0452,-6.046,-6.0468,0,0,0,0,0,-5.9879,-5.9939,-5.9936,-5.9952,-6.0037,-6.0101,-6.0112,-6.0124,-6.0103,-6.0133,-6.0154,-6.0145,-6.0267,-6.0237,-6.0252,-6.029,-6.0411,-6.0416,-6.0422,-6.0448,-6.0459,-6.0467,0,0,0,0,0,0,-5.9895,-5.9945,-5.9943,-6.0019,-6.0056,-6.0099,-6.0137,-6.0134,-6.0177,-6.0173,-6.0185,-6.0195,-6.0263,-6.0283,-6.0248,-6.0367,-6.0336,-6.0345,-6.0351,-6.0361,-6.0369,-6.0362,-6.0224,0,0,0,0,0,-5.9908,-5.9957,-5.9997,-6.0061,-6.008,-6.0106,-6.0134,-6.014,-6.0178,-6.0193,-6.022,-6.0256,-6.0303,-6.0333,-6.0378,-6.0455,-6.0465,-6.0489,-6.0497,-6.0503,-6.051,-6.0554,-6.0566,-6.0442,-6.0442,-6.0442,0,0,-5.9933,-5.9967,-5.9997,-6.0065,-6.0094,-6.0144,-6.0118,-6.0172,-6.0209,-6.0201,-6.0267,-6.0288,-6.0329,-6.0403,-6.0436,-6.0422,-6.0547,-6.051,-6.0515,-6.0519,-6.0561,-6.0573,-6.0583,-6.0446,-6.0445,-6.0445,0,0,-6.0006,-6.0037,-6.0094,-6.0125,-6.0171,-6.0188,-6.0202,-6.0246,-6.026,-6.0328,-6.0324,-6.0367,-6.0447,-6.0477,-6.0503,-6.059,-6.0584,-6.0604,-6.0645,-6.0687,-6.0697,-6.0706,-6.0738,-6.0749,-6.0611,-6.0611,-6.0612,0,-6.0032,-6.0108,-6.0123,-6.0178,-6.0208,-6.0206,-6.0264,-6.0293,-6.035,-6.0371,-6.0354,-6.0456,-6.0483,-6.0565,-6.0586,-6.0607,-6.0623,-6.0599,-6.0695,-6.0704,-6.0712,-6.0742,-6.0754,-6.0614,-6.0613,-6.0613,-6.0613,0,-6.0139,-6.0192,-6.0232,-6.0291,-6.0325,-6.0381,-6.0404,-6.0437,-6.0442,-6.046,-6.0529,-6.0563,-6.0615,-6.0635,-6.0638,-6.0717,-6.0706,-6.0692,-6.0661,-6.0726,-6.0755,-6.0766,-6.0617,-6.0616,-6.0615,-6.0615,0,0,-6.0222,-6.029,-6.0304,-6.0332,-6.0384,-6.0424,-6.0481,-6.0534,-6.0563,-6.0603,-6.065,-6.0719,-6.0707,-6.0737,-6.0744,-6.0781,-6.0849,-6.0762,-6.0763,-6.0778,-6.0939,-6.095,-6.0963,-6.0846,-6.0848,-6.085,-6.0936,0,-6.03,-6.0402,-6.0418,-6.0506,-6.0556,-6.0556,-6.0605,-6.0642,-6.0661,-6.0705,-6.0726,-6.0775,-6.0755,-6.0774,-6.0811,-6.0833,-6.0882,-6.0827,-6.0889,-6.0891,-6.0879,-6.0978,-6.0989,-6.1068,-6.0947,-6.0949,-6.095,0,-6.0405,-6.0451,-6.0545,-6.0593,-6.0614,-6.0658,-6.0709,-6.0752,-6.0793,-6.0805,-6.084,-6.0843,-6.0901,-6.0868,-6.0948,-6.0911,-6.0937,-6.0952,-6.0956,-6.0962,-6.0925,-6.0987,-6.1093,-6.1105,-6.0968,-6.0967,-6.0965,0,-6.0457,-6.0542,-6.061,-6.0634,-6.069,-6.0721,-6.0746,-6.0786,-6.0818,-6.0862,-6.0883,-6.0933,-6.096,-6.0998,-6.1014,-6.0989,-6.1094,-6.1062,-6.1105,-6.1104,-6.1126,-6.1124,-6.1239,-6.1143,-6.1143,-6.1143,-6.1142,0,-6.0543,-6.0601,-6.0635,-6.0677,-6.0742,-6.076,-6.0823,-6.0847,-6.0883,-6.0929,-6.0931,-6.0974,-6.0993,-6.1039,-6.1052,-6.1117,-6.1129,-6.1139,-6.1142,-6.1139,-6.1138,-6.1156,-6.1151,-6.1146,-6.1145,-6.1144,-6.1144,0,-6.0612,-6.0637,-6.0711,-6.076,-6.0774,-6.082,-6.0861,-6.0901,-6.0921,-6.098,-6.0994,-6.1025,-6.1079,-6.11,-6.1165,-6.1174,-6.1249,-6.1247,-6.1236,-6.1237,-6.1278,-6.1274,-6.1408,-6.1427,-6.1319,-6.132,-6.1321,0,-6.0665,-6.071,-6.0764,-6.0797,-6.0823,-6.0874,-6.0908,-6.0927,-6.0961,-6.1014,-6.1048,-6.1103,-6.1148,-6.1234,-6.1261,-6.1312,-6.1311,-6.1355,-6.1319,-6.1315,-6.1312,-6.131,-6.1315,-6.1361,-6.1362,-6.1363,-6.1364,0,-6.0757,-6.0768,-6.0817,-6.0871,-6.0911,-6.0954,-6.0995,-6.1021,-6.1047,-6.1085,-6.1142,-6.1177,-6.1246,-6.13,-6.1352,-6.1376,-6.1375,-6.1376,-6.1388,-6.1386,-6.1377,-6.1383,-6.1254,-6.1372,-6.1371,-6.1371,-6.137,-6.137,-6.0819,-6.086,-6.0906,-6.0961,-6.0995,-6.1034,-6.1076,-6.1102,-6.115,-6.1209,-6.1217,-6.1278,-6.132,-6.1391,-6.1418,-6.1465,-6.1453,-6.1471,-6.1476,-6.148,-6.1483,-6.137,-6.1475,-6.1474,-6.1474,-6.1474,-6.1474,0,-6.0912,-6.0942,-6.0993,-6.1052,-6.1096,-6.1093,-6.114,-6.1175,-6.123,-6.127,-6.1315,-6.1381,-6.1434,-6.1467,-6.1521,-6.1552,-6.1553,-6.1566,-6.1563,-6.1569,-6.149,-6.1475,-6.1564,-6.1564,-6.1564,-6.1564,-6.1564,-6.1564,-6.0965,-6.1035,-6.1052,-6.1138,-6.1167,-6.1229,-6.1256,-6.1292,-6.1325,-6.1399,-6.1444,-6.1466,-6.1504,-6.1561,-6.1609,-6.1618,-6.1637,-6.1651,-6.1658,-6.1584,-6.1574,-6.1565,-6.1551,-6.1655,-6.1655,-6.1733,-6.1734,-6.1734]}]]